User: anonymous   Login
Location: Lamoine Observatory
(44.4551°N, 68.3470°W)
Time: 21:23:30
(UTC-04:00)
Language:

Cosmos 1674 Rocket - Orbit

View from above orbital plane
View from above orbital plane
View from above satellite
View from above satellite

Ground track
Ground track

The orbit data is extracted from the following two-line orbital elements,

1 15945U 85069B   16122.54780274  .00000142  00000-0  14217-4 0  9997
2 15945  82.5270 158.5048 0019339 196.1835 163.8765 14.83851018659981
Epoch (UTC): 01 May 2016 13:08:50
Eccentricity: 0.0019339
inclination: 82.5270°
perigee height: 603 km
apogee height: 631 km
right ascension of ascending node: 158.5048°
argument of perigee: 196.1835°
revolutions per day: 14.83851018
mean anomaly at epoch: 163.8765°
orbit number at epoch: 65998

The dashed part of the orbit path shows where the satellite is in the earth's shadow,  

DLR